| time (UTC) | temp F | wind direction | speed knots | gust knots | rain 1hr in | rain 24hr in | rain mn in | humidity % | barometer mb |
| 20260903211706 | 67 | 230 | 0.0 | 2.6 | 0.00 | 0.00 | 0.00 | 67 | 1023.5 |
| 20260903210203 | 67 | 217 | 0.9 | 3.5 | 0.00 | 0.00 | 0.00 | 66 | 1023.4 |
| 20260903201704 | 67 | 264 | 0.0 | 0.9 | 0.00 | 0.00 | 0.00 | 66 | 1023.7 |
| 20260903200202 | 67 | 264 | 0.0 | 0.9 | 0.00 | 0.00 | 0.00 | 67 | 1023.7 |
| 20260903194703 | 68 | 264 | 0.0 | 1.7 | 0.00 | 0.00 | 0.00 | 64 | 1023.4 |
| 20260903191707 | 70 | 296 | 0.9 | 3.5 | 0.00 | 0.00 | 0.00 | 60 | 1023.0 |
| 20260903190204 | 70 | 257 | 0.9 | 3.5 | 0.00 | 0.00 | 0.00 | 60 | 1022.9 |
| 20260903184702 | 70 | 171 | 0.9 | 3.5 | 0.00 | 0.00 | 0.00 | 60 | 1022.8 |
| 20260903183204 | 71 | 235 | 0.9 | 3.5 | 0.00 | 0.00 | 0.00 | 59 | 1022.8 |
| 20260903181703 | 71 | 257 | 0.9 | 3.5 | 0.00 | 0.00 | 0.00 | 58 | 1022.6 |
| 20260903180203 | 72 | 269 | 0.9 | 5.2 | 0.00 | 0.00 | 0.00 | 57 | 1022.7 |
| 20260903173204 | 74 | 256 | 1.7 | 5.2 | 0.00 | 0.00 | 0.00 | 55 | 1022.5 |
| 20260903171704 | 74 | 194 | 1.7 | 6.1 | 0.00 | 0.00 | 0.00 | 54 | 1022.5 |
| 20260903170201 | 75 | 265 | 0.9 | 7.0 | 0.00 | 0.00 | 0.00 | 54 | 1022.6 |
| 20260903164704 | 75 | 285 | 1.7 | 7.0 | 0.00 | 0.00 | 0.00 | 53 | 1022.5 |
| 20260903163201 | 76 | 289 | 2.6 | 7.8 | 0.00 | 0.00 | 0.00 | 53 | 1022.3 |
| 20260903161703 | 76 | 246 | 1.7 | 6.1 | 0.00 | 0.00 | 0.00 | 53 | 1022.4 |
| 20260903160203 | 77 | 232 | 2.6 | 7.0 | 0.00 | 0.00 | 0.00 | 52 | 1022.5 |
| 20260903154701 | 77 | 277 | 2.6 | 7.0 | 0.00 | 0.00 | 0.00 | 51 | 1022.4 |
| 20260903153209 | 77 | 273 | 2.6 | 7.0 | 0.00 | 0.00 | 0.00 | 51 | 1022.6 |
| 20260903151705 | 78 | 246 | 2.6 | 9.6 | 0.00 | 0.00 | 0.00 | 50 | 1022.6 |
| 20260903150204 | 79 | 263 | 2.6 | 8.7 | 0.00 | 0.00 | 0.00 | 48 | 1022.5 |
| 20260903144705 | 79 | 167 | 3.5 | 10.4 | 0.00 | 0.00 | 0.00 | 49 | 1022.5 |
| 20260903143202 | 78 | 246 | 2.6 | 8.7 | 0.00 | 0.00 | 0.00 | 49 | 1022.7 |
| 20260903141704 | 79 | 248 | 3.5 | 12.2 | 0.00 | 0.00 | 0.00 | 48 | 1022.8 |
| 20260903140205 | 79 | 273 | 2.6 | 7.8 | 0.00 | 0.00 | 0.00 | 48 | 1022.8 |
| 20260903134702 | 78 | 243 | 3.5 | 9.6 | 0.00 | 0.00 | 0.00 | 48 | 1022.8 |
| 20260903133747 | 79 | 286 | 2.6 | 9.6 | 0.00 | 0.00 | 0.00 | 49 | 1022.8 |
| 20260903133050 | 77 | 217 | 2.6 | 7.8 | 0.00 | 0.00 | 0.00 | 51 | 1022.9 |
| 20260903124702 | 77 | 290 | 4.3 | 11.3 | 0.00 | 0.00 | 0.00 | 50 | 1023.0 |
| 20260903123202 | 78 | 261 | 3.5 | 9.6 | 0.00 | 0.00 | 0.00 | 49 | 1023.3 |
| 20260903121703 | 77 | 278 | 3.5 | 9.6 | 0.00 | 0.00 | 0.00 | 51 | 1023.5 |
| 20260903114703 | 77 | 232 | 4.3 | 9.6 | 0.00 | 0.00 | 0.00 | 50 | 1023.5 |
| 20260903113207 | 78 | 217 | 3.5 | 9.6 | 0.00 | 0.00 | 0.00 | 48 | 1023.4 |
| 20260903111702 | 79 | 221 | 3.5 | 12.2 | 0.00 | 0.00 | 0.00 | 49 | 1023.5 |
| 20260903110202 | 80 | 287 | 3.5 | 11.3 | 0.00 | 0.00 | 0.00 | 49 | 1023.5 |
| 20260903104706 | 79 | 254 | 3.5 | 12.2 | 0.00 | 0.00 | 0.00 | 49 | 1023.6 |
| 20260903103205 | 77 | 194 | 4.3 | 13.0 | 0.00 | 0.00 | 0.00 | 52 | 1023.6 |
| 20260903101703 | 78 | 281 | 2.6 | 8.7 | 0.00 | 0.00 | 0.00 | 52 | 1023.6 |
| 20260903094703 | 76 | 178 | 3.5 | 8.7 | 0.00 | 0.00 | 0.00 | 54 | 1023.9 |
| 20260903093202 | 76 | 212 | 3.5 | 10.4 | 0.00 | 0.00 | 0.00 | 55 | 1023.9 |
| 20260903091704 | 75 | 219 | 3.5 | 8.7 | 0.00 | 0.00 | 0.00 | 56 | 1024.3 |
| 20260903090203 | 75 | 302 | 2.6 | 9.6 | 0.00 | 0.00 | 0.00 | 56 | 1024.1 |
| 20260903084704 | 75 | 288 | 1.7 | 6.1 | 0.00 | 0.00 | 0.00 | 55 | 1024.1 |
| 20260903083203 | 73 | 132 | 1.7 | 7.0 | 0.00 | 0.00 | 0.00 | 57 | 1024.1 |
| 20260903081707 | 73 | 246 | 1.7 | 7.0 | 0.00 | 0.00 | 0.00 | 60 | 1023.9 |
| 20260903080205 | 72 | 304 | 1.7 | 6.1 | 0.00 | 0.00 | 0.00 | 62 | 1023.9 |
| 20260903073203 | 69 | 348 | 1.7 | 7.0 | 0.00 | 0.00 | 0.00 | 69 | 1024.3 |
| 20260903071703 | 68 | 290 | 1.7 | 5.2 | 0.00 | 0.00 | 0.00 | 70 | 1024.4 |
| 20260903064702 | 65 | 219 | 0.0 | 2.6 | 0.00 | 0.00 | 0.00 | 75 | 1024.2 |
| 20260903063202 | 63 | 277 | 0.9 | 3.5 | 0.00 | 0.00 | 0.00 | 78 | 1024.2 |
| 20260903061702 | 62 | 200 | 0.9 | 2.6 | 0.00 | 0.00 | 0.00 | 81 | 1024.0 |
| 20260903060200 | 60 | 269 | 0.9 | 2.6 | 0.00 | 0.00 | 0.00 | 83 | 1023.9 |
| 20260903053203 | 59 | 253 | 0.0 | 0.0 | 0.00 | 0.00 | 0.00 | 88 | 1023.7 |
| 20260903051700 | 57 | 253 | 0.0 | 0.0 | 0.00 | 0.00 | 0.00 | 91 | 1023.7 |
| 20260903050203 | 56 | 253 | 0.0 | 0.0 | 0.00 | 0.00 | 0.00 | 91 | 1023.6 |
| 20260903044704 | 55 | 253 | 0.0 | 0.0 | 0.00 | 0.00 | 0.00 | 91 | 1023.6 |
| 20260903043201 | 55 | 253 | 0.0 | 0.0 | 0.00 | 0.00 | 0.00 | 90 | 1023.6 |
| 20260903041704 | 56 | 253 | 0.0 | 0.0 | 0.00 | 0.00 | 0.00 | 89 | 1023.6 |
| 20260903040201 | 57 | 253 | 0.0 | 0.0 | 0.00 | 0.00 | 0.00 | 87 | 1023.6 |
| 20260903034706 | 58 | 253 | 0.0 | 0.0 | 0.00 | 0.00 | 0.00 | 86 | 1023.6 |
| 20260903033202 | 59 | 253 | 0.0 | 0.0 | 0.00 | 0.00 | 0.00 | 84 | 1023.7 |
| 20260903030204 | 60 | 253 | 0.0 | 0.0 | 0.00 | 0.00 | 0.00 | 83 | 1023.6 |
| 20260903024702 | 60 | 253 | 0.0 | 0.0 | 0.00 | 0.00 | 0.00 | 82 | 1023.6 |
| 20260903023201 | 60 | 253 | 0.0 | 0.0 | 0.00 | 0.00 | 0.00 | 82 | 1023.6 |
| 20260903021700 | 59 | 253 | 0.0 | 0.0 | 0.00 | 0.00 | 0.00 | 82 | 1023.7 |
| 20260903020201 | 59 | 253 | 0.0 | 0.0 | 0.00 | 0.00 | 0.00 | 81 | 1023.6 |
| 20260903014703 | 60 | 253 | 0.0 | 0.9 | 0.00 | 0.00 | 0.00 | 80 | 1023.6 |
| 20260903013202 | 60 | 253 | 0.0 | 1.7 | 0.00 | 0.00 | 0.00 | 80 | 1023.6 |
| 20260903011701 | 59 | 253 | 0.0 | 0.0 | 0.00 | 0.00 | 0.00 | 82 | 1023.6 |
| 20260903010205 | 60 | 253 | 0.0 | 0.0 | 0.00 | 0.00 | 0.00 | 81 | 1023.4 |
| 20260903004707 | 59 | 253 | 0.0 | 0.0 | 0.00 | 0.00 | 0.00 | 83 | 1023.5 |
| 20260903001702 | 59 | 253 | 0.0 | 0.0 | 0.00 | 0.00 | 0.00 | 82 | 1023.4 |
| 20260903000204 | 60 | 253 | 0.0 | 0.0 | 0.00 | 0.00 | 0.00 | 81 | 1023.4 |
| 20260902234701 | 61 | 253 | 0.0 | 0.0 | 0.00 | 0.00 | 0.00 | 80 | 1023.4 |
| 20260902233203 | 61 | 253 | 0.0 | 0.0 | 0.00 | 0.00 | 0.00 | 78 | 1023.4 |
| 20260902231702 | 62 | 253 | 0.0 | 0.9 | 0.00 | 0.00 | 0.00 | 77 | 1023.4 |
| 20260902230201 | 62 | 253 | 0.0 | 0.9 | 0.00 | 0.00 | 0.00 | 77 | 1023.4 |
| 20260902224701 | 62 | 253 | 0.0 | 1.7 | 0.00 | 0.00 | 0.00 | 75 | 1023.5 |
| 20260902221703 | 63 | 253 | 0.0 | 0.9 | 0.00 | 0.00 | 0.00 | 74 | 1023.2 |
| 20260902220202 | 63 | 253 | 0.0 | 0.0 | 0.00 | 0.00 | 0.00 | 74 | 1023.1 |
| 20260902214706 | 61 | 253 | 0.0 | 0.0 | 0.00 | 0.00 | 0.00 | 77 | 1023.0 |
| 20260902213204 | 61 | 253 | 0.0 | 0.0 | 0.00 | 0.00 | 0.00 | 79 | 1022.8 |